CZ-6A DEB, 61303

Orbit data source: Space-Track

CZ-6A DEB, 61303 is space debris in LEO originally from a launch on Tue, 06 Aug 2024 UTC launched from the Taiyaun Space Center, China (TSC). Debris objects in space refer to the collection of defunct objects orbiting the Earth. Examples of debris include non-operational satellites, rocket bodies, and fragments generated from explosions, collisions, or faulty payload assembly.

Loading next visibility...
Identifier
61303, 2024-140TQ
Orbit
LEO
Country
Flag of CNCN / PRC
Related business
Manufacturer
SAST
Mission
Spacecraft
Bus & Motor
Unknown
Mass
Unknown
Launch date (UTC)
2024-08-06 (2 years ago)
Launch vehicle
Unknown
Launch site
Taiyaun Space Center, China (TSC)
Object type
Payload
Rocket body
Debris
Shape & HBR
Unknown shape, 0.1 m
Radar Cross Section
Medium (>0.1 m² and <1 m²)

Expand to show TLE details & history
Last TLE update: 15 hours ago

TLE from 15 hours ago
0 CZ-6A DEB
1 61303U 24140TQ  26171.33272477  .00000428  00000-0  17677-3 0  9991
2 61303  89.3010 297.8468 0043465 106.2337 254.3644 14.24521384 94098
Epoch: 2026-06-20T07:59Z
TLE epoch observation values (Epoch: 2026-06-20T07:59:07.420Z)
Latitude
-0.00004°
Longitude
-90.48298°
Altitude
821.711 km
Speed
7.438 km/s
True Right ascension
19h 51m 23s
True Declination
0° 00' 00"
Sunlit
Object was in full shadow at epoch
Visualization orbit readout
Latitude
Unknown
Longitude
Unknown
Altitude
Unknown
Speed
Unknown
Apparent Right ascension
Unknown
Apparent Declination
Unknown
Sunlit
N/A
Visualization observer readout
Local Sidereal Time
10:18:55
Azimuth
Unknown
Elevation
Unknown
Doppler factor
Unknown
Orbital elements
Apogee altitude
838.276 km
Perigee altitude
775.815 km
Semi-major axis
7,185.183 km
Eccentricity
0.00435
Inclination
89.301°
RAAN
297.8468°
Arg. of periapsis
106.2337°
True anomaly
253.88547°
Mean anomaly
254.3644°
Eccentric anomaly
254.12486°
Mean motion
3.56358 °/min
Orbital period
101.02 mins
BSTAR
0.00017677
Loading maneuver chart data...
Computing Atmospheric mass density...
Loading historical data...
Loading historical data...
Loading historical data...
Loading historical data...
Loading historical data...
Loading historical data...
Loading historical data...

Documentation

Showing up to 5 results
|